Le nostre stazioni meteo in Italia

Pubblicità
Il mio iltempo24.it
Palermo/Punta Raisi, Italia (16405): Temperatura & dewpoint: 11.02.2019 14:00:00 - 17.02.2019 14:00:00 (CET)Palermo/Punta Raisi, Italia (16405): velocità del vento: 11.02.2019 14:00:00 - 17.02.2019 14:00:00 (CET)Palermo/Punta Raisi, Italia (16405): direzione del vento: 11.02.2019 14:00:00 - 17.02.2019 14:00:00 (CET)Palermo/Punta Raisi, Italia (16405): reduced air pressure: 11.02.2019 14:00:00 - 17.02.2019 14:00:00 (CET)Palermo/Punta Raisi, Italia (16405): visibility: 11.02.2019 14:00:00 - 17.02.2019 14:00:00 (CET)Palermo/Punta Raisi, Italia (16405): precipitazioni: 11.02.2019 14:00:00 - 17.02.2019 14:00:00 (CET)
Data & Tempo tt [°C] td [°C] ff [km/h] ff [kn] dd ppp [hPa] vv [km] rr [mm]
17.02.2019 14:00:00 13,0 5,0 16 9 NE - 10 -
17.02.2019 13:00:00 12,7 5,3 16 9 NNE 1029,6 10 -
17.02.2019 12:00:00 13,0 5,0 15 8 NNE - 10 -
17.02.2019 11:00:00 - - - - - - - -
17.02.2019 10:00:00 11,3 4,3 9 5 SO 1030,9 10 0,0
17.02.2019 09:00:00 10,0 5,0 5 3 S - 10 -
17.02.2019 08:00:00 7,0 3,0 9 5 SSO - 10 -
17.02.2019 07:00:00 8,2 3,7 8 4 SSO 1030,1 10 -
17.02.2019 06:00:00 7,0 3,0 8 4 S - 10 -
17.02.2019 05:00:00 8,0 4,0 5 3 SSO - 10 -
17.02.2019 04:00:00 8,0 3,4 5 3 SSE 1029,4 10 0,0
17.02.2019 03:00:00 7,0 3,0 8 4 E - 10 -
17.02.2019 02:00:00 8,0 3,0 5 3 E - 10 -
17.02.2019 01:00:00 8,0 2,7 11 6 ENE 1030,0 10 -
17.02.2019 00:00:00 9,0 3,0 11 6 E - 10 -
16.02.2019 23:00:00 11,0 3,0 15 8 ENE - 10 -
16.02.2019 22:00:00 11,7 3,6 16 9 NE 1030,4 10 0,0
16.02.2019 21:00:00 12,0 4,0 21 11 NE - 10 -
16.02.2019 20:00:00 12,0 4,0 22 12 NNE - 10 -
16.02.2019 19:00:00 12,1 3,5 21 11 NE 1029,6 10 -
16.02.2019 18:00:00 12,0 4,0 16 9 NE - 10 -
16.02.2019 17:00:00 12,0 4,0 21 11 NNE - 10 -
16.02.2019 16:00:00 12,7 4,3 21 11 NNE 1029,1 10 0,0
16.02.2019 15:00:00 13,0 3,0 21 11 NE - 10 -
16.02.2019 14:00:00 13,0 3,0 22 12 NE - 10 -
16.02.2019 13:00:00 13,3 2,2 18 10 ENE 1029,4 10 -
16.02.2019 12:00:00 13,0 2,0 24 13 NE - 10 -
16.02.2019 11:00:00 12,0 1,0 26 14 ENE - 10 -
16.02.2019 10:00:00 12,6 2,2 26 14 ENE 1029,0 10 0,0
16.02.2019 09:00:00 12,0 2,0 26 14 ENE - 10 -
16.02.2019 08:00:00 11,0 2,0 31 17 ENE - 10 -
16.02.2019 07:00:00 10,7 0,7 31 17 ENE 1026,8 10 -
16.02.2019 06:00:00 11,0 0,0 37 20 ENE - 10 -
16.02.2019 05:00:00 11,0 2,0 29 16 E - 10 -
16.02.2019 04:00:00 10,7 1,9 31 17 ENE 1025,8 10 0,0
16.02.2019 03:00:00 11,0 3,0 29 16 ENE - 10 -
16.02.2019 02:00:00 10,0 5,0 29 16 ENE - 10 -
16.02.2019 01:00:00 9,7 5,3 28 15 ENE 1025,4 10 -
16.02.2019 00:00:00 11,0 5,0 34 18 E - 10 -
15.02.2019 23:00:00 10,0 5,0 31 17 ENE - 10 -
15.02.2019 22:00:00 10,7 5,4 26 14 ENE 1024,9 10 0,0
15.02.2019 21:00:00 10,0 6,0 48 26 ENE - 10 -
15.02.2019 20:00:00 13,0 7,0 24 13 NE - 10 -
15.02.2019 19:00:00 11,8 6,1 18 10 NE 1024,5 10 -
15.02.2019 18:00:00 13,0 8,0 21 11 NE - 10 -
15.02.2019 17:00:00 13,0 8,0 15 8 NNE - 10 -
15.02.2019 16:00:00 13,6 8,6 8 4 NNO 1024,0 10 0,0
15.02.2019 15:00:00 14,0 9,0 8 4 NO - 10 -
15.02.2019 14:00:00 14,0 9,0 8 4 NO - 10 -
15.02.2019 13:00:00 13,8 8,9 5 3 O 1026,3 10 -
15.02.2019 12:00:00 13,0 9,0 5 3 OSO - 10 -
15.02.2019 11:00:00 13,0 8,0 4 2 - - 10 -
15.02.2019 10:00:00 13,1 8,2 5 3 OSO 1027,7 10 0,0
15.02.2019 09:00:00 11,0 8,0 9 5 SSE - 10 -
15.02.2019 08:00:00 9,0 6,0 4 2 SSE - 10 -
15.02.2019 07:00:00 9,0 6,0 9 5 S 1028,1 10 -
15.02.2019 06:00:00 9,0 6,0 5 3 SSE - 10 -
15.02.2019 05:00:00 8,0 5,0 13 7 SSE - 10 -
15.02.2019 04:00:00 7,8 4,6 4 2 SE 1028,8 10 0,0
15.02.2019 03:00:00 9,0 5,0 8 4 SE - 10 -
15.02.2019 02:00:00 9,0 5,0 8 4 SE - 10 -
15.02.2019 01:00:00 8,6 4,1 5 3 - 1029,5 10 -
15.02.2019 00:00:00 10,0 5,0 4 2 - - 10 -
14.02.2019 23:00:00 12,0 5,0 13 7 NNE - 10 -
14.02.2019 22:00:00 11,8 5,7 15 8 N 1030,6 10 0,0
14.02.2019 21:00:00 12,0 5,0 18 10 NNE - 10 -
14.02.2019 20:00:00 11,0 5,0 15 8 ENE - 10 -
14.02.2019 19:00:00 11,8 5,1 18 10 ENE 1030,9 10 -
14.02.2019 18:00:00 11,0 4,0 21 11 NE - 10 -
14.02.2019 17:00:00 12,0 5,0 22 12 NE - 10 -
14.02.2019 16:00:00 12,3 5,3 24 13 NE 1031,0 10 0,0
14.02.2019 15:00:00 12,0 4,0 18 10 NE - 10 -
14.02.2019 14:00:00 12,0 3,0 18 10 NE - 10 -
14.02.2019 13:00:00 12,3 4,5 18 10 NE 1031,8 10 -
14.02.2019 12:00:00 12,0 3,0 22 12 NE - 10 -
14.02.2019 11:00:00 12,0 3,0 21 11 NE - 10 -
14.02.2019 10:00:00 11,4 1,1 22 12 NE 1032,1 10 0,0
14.02.2019 09:00:00 11,0 1,0 24 13 ENE - 10 -
14.02.2019 08:00:00 10,0 2,0 31 17 ENE - 10 -
14.02.2019 07:00:00 10,0 0,9 35 19 NE 1030,5 10 -
14.02.2019 06:00:00 10,0 0,0 34 18 NE - 10 -
14.02.2019 05:00:00 10,0 0,0 37 20 NE - 10 -
14.02.2019 04:00:00 10,0 0,3 42 23 NE 1029,7 10 0,0
14.02.2019 03:00:00 10,0 1,0 41 22 NE - 10 -
14.02.2019 02:00:00 10,0 0,0 37 20 ENE - 10 -
14.02.2019 01:00:00 10,3 0,9 37 20 NE 1029,6 10 -
14.02.2019 00:00:00 11,0 3,0 37 20 NE - 10 -
13.02.2019 23:00:00 11,0 2,0 39 21 NE - 10 -
13.02.2019 22:00:00 10,6 2,1 37 20 NE 1029,7 10 0,0
13.02.2019 21:00:00 12,0 4,0 42 23 NNE - 10 -
13.02.2019 20:00:00 11,0 3,0 41 22 NE - 10 -
13.02.2019 19:00:00 11,0 3,1 39 21 NNE 1029,1 10 -
13.02.2019 18:00:00 11,0 3,0 41 22 NNE - 10 -
13.02.2019 17:00:00 11,0 2,0 37 20 NE - 10 -
13.02.2019 16:00:00 11,2 2,5 41 22 NNE 1028,9 10 0,0
13.02.2019 15:00:00 11,0 2,0 41 22 NNE - 10 -
13.02.2019 14:00:00 11,0 1,0 39 21 NE - 10 -
13.02.2019 13:00:00 11,3 2,6 46 25 NNE 1029,3 10 -
13.02.2019 12:00:00 11,0 2,0 39 21 NE - 10 -
13.02.2019 11:00:00 11,0 2,0 35 19 NE - 10 -
13.02.2019 10:00:00 10,9 0,6 39 21 NE 1029,8 10 0,0
13.02.2019 09:00:00 10,0 1,0 37 20 NE - 10 -
13.02.2019 08:00:00 11,0 1,0 39 21 NE - 10 -
13.02.2019 07:00:00 9,9 0,3 35 19 NE 1027,8 10 -
13.02.2019 06:00:00 11,0 1,0 34 18 NE - 10 -
13.02.2019 05:00:00 11,0 2,0 35 19 NE - 10 -
13.02.2019 04:00:00 10,8 1,6 34 18 ENE 1026,6 10 0,0
13.02.2019 03:00:00 11,0 3,0 29 16 NE - 10 -
13.02.2019 02:00:00 11,0 4,0 24 13 NE - 10 -
13.02.2019 01:00:00 11,3 3,7 26 14 NNE 1026,6 10 -
13.02.2019 00:00:00 11,0 2,0 26 14 ENE - 10 -
12.02.2019 23:00:00 12,0 2,0 26 14 NNE - 10 -
12.02.2019 22:00:00 10,2 2,0 13 7 ENE 1025,9 10 0,0
12.02.2019 21:00:00 11,0 2,0 16 9 ENE - 10 -
12.02.2019 20:00:00 10,0 3,0 22 12 E - 10 -
12.02.2019 19:00:00 10,0 3,1 15 8 NE 1025,1 10 -
12.02.2019 18:00:00 12,0 3,0 16 9 N - 10 -
12.02.2019 17:00:00 12,0 4,0 24 13 N - 10 -
12.02.2019 16:00:00 12,2 2,5 29 16 NNE 1023,0 10 0,0
12.02.2019 15:00:00 12,0 2,0 39 21 NNE - 10 -
12.02.2019 14:00:00 12,0 3,0 37 20 NNE - 10 -
12.02.2019 13:00:00 12,4 2,6 34 18 NE 1022,2 10 -
12.02.2019 12:00:00 12,0 3,0 37 20 NE - 10 -
12.02.2019 11:00:00 12,0 3,0 41 22 NNE - 10 -
12.02.2019 10:00:00 11,7 4,2 35 19 NE 1021,3 10 0,0
12.02.2019 09:00:00 11,0 4,0 35 19 NE - 10 -
12.02.2019 08:00:00 11,0 5,0 35 19 NE - 10 -
12.02.2019 07:00:00 11,3 5,2 48 26 NNE 1018,0 8 -
12.02.2019 06:00:00 10,0 2,0 18 10 N - 10 -
12.02.2019 05:00:00 11,0 4,0 26 14 NO - 10 -
12.02.2019 04:00:00 10,9 3,8 37 20 NO 1017,7 10 0,0
12.02.2019 03:00:00 11,0 5,0 46 25 N - 10 -
12.02.2019 02:00:00 12,0 5,0 22 12 NO - 10 -
12.02.2019 01:00:00 11,0 2,9 34 18 NO 1018,2 10 -
12.02.2019 00:00:00 13,0 4,0 34 18 NO - 10 -
11.02.2019 23:00:00 13,0 4,0 35 19 NO - 10 -
11.02.2019 22:00:00 12,9 5,2 24 13 NO 1018,2 10 0,0
11.02.2019 21:00:00 13,0 6,0 29 16 ONO - 10 -
11.02.2019 20:00:00 13,0 7,0 26 14 ONO - 10 -
11.02.2019 19:00:00 13,2 7,7 41 22 O 1017,5 10 -
11.02.2019 18:00:00 13,0 7,0 46 25 O - 10 -
11.02.2019 17:00:00 13,0 7,0 46 25 O - 10 -
11.02.2019 16:00:00 13,6 7,6 50 27 O 1016,9 10 0,0
11.02.2019 15:00:00 14,0 8,0 50 27 O - 10 -
11.02.2019 14:00:00 14,0 6,0 46 25 O - 10 -

tt = Temperatura
td = dewpoint
ff = velocità del vento
dd = direzione del vento
ppp = reduced air pressure
vv = visibility
rr = precipitazioni

Stazioni seguenti

WeatherPro
AMSI
MeteoEarth